DW5210 Weather Reports


Display with metric or nautical units.
time (UTC)temp
F
wind
direction
speed
MPH
gust
MPH
rain 1hr
in
rain 24hr
in
rain mn
in
humidity
%
barometer
mb
20260505140505 59 16 3.0 7.0 0.00 0.00 0.00 68 1010.2
20260505123505 59 10 2.0 7.0 0.00 0.00 0.00 69 1010.6
20260505120504 59 5 3.0 10.0 0.00 0.00 0.00 71 1010.6
20260505113504 58 27 5.0 9.0 0.00 0.00 0.00 73 1010.8
20260505113005 57 45 1.0 9.0 0.00 0.00 0.00 74 1010.8
20260505110504 56 56 1.0 9.0 0.00 0.00 0.00 75 1011.0
20260505100505 55 17 1.0 7.0 0.00 0.00 0.00 79 1011.2
20260505100005 55 16 2.0 5.0 0.00 0.00 0.00 78 1011.2
20260505083005 54 21 1.0 7.0 0.00 0.00 0.00 80 1011.6
20260505080005 54 10 3.0 12.0 0.00 0.00 0.00 81 1011.6
20260505073505 54 24 5.0 12.0 0.00 0.00 0.00 81 1011.5
20260505073004 54 5 4.0 12.0 0.00 0.00 0.00 82 1011.5
20260505070504 54 27 5.0 9.0 0.00 0.00 0.00 83 1011.6
20260505063504 53 35 1.0 5.0 0.00 0.00 0.00 86 1011.7
20260505063004 53 35 2.0 3.0 0.00 0.00 0.00 87 1011.7
20260505060504 52 35 1.0 3.0 0.00 0.00 0.00 88 1011.6
20260505053504 51 35 2.0 3.0 0.00 0.00 0.00 89 1011.7
20260505050505 51 35 2.0 5.0 0.00 0.00 0.00 88 1011.7
20260505033504 51 35 0.0 0.0 0.00 0.00 0.00 89 1011.9
20260505030005 50 35 0.0 0.0 0.00 0.00 0.00 88 1012.0
20260505023504 51 35 0.0 2.0 0.00 0.00 0.00 87 1012.0
20260505013004 53 35 1.0 3.0 0.00 0.00 0.00 86 1012.4
20260505010504 53 35 0.0 3.0 0.00 0.00 0.00 84 1012.4
20260505003504 53 35 0.0 3.0 0.00 0.00 0.00 84 1012.7
20260504233504 54 35 3.0 7.0 0.00 0.00 0.00 84 1012.7
20260504233005 54 35 2.0 7.0 0.00 0.00 0.00 84 1012.7
20260504223005 55 36 2.0 7.0 0.00 0.00 0.00 82 1012.9
20260504220504 55 35 4.0 6.0 0.00 0.00 0.00 83 1013.1
20260504220004 55 35 2.0 6.0 0.00 0.00 0.00 83 1013.1
20260504203505 55 35 0.0 0.0 0.00 0.00 0.00 83 1013.1
20260504190505 57 35 0.0 5.0 0.00 0.00 0.00 80 1012.5
20260504183505 58 35 0.0 8.0 0.00 0.00 0.00 79 1012.2
20260504180504 58 35 0.0 6.0 0.00 0.00 0.00 78 1012.2
20260504180004 58 35 2.0 6.0 0.00 0.00 0.00 78 1012.2
20260504173504 59 35 1.0 5.0 0.00 0.00 0.00 77 1012.1
20260504170504 60 32 0.0 7.0 0.00 0.00 0.00 76 1012.0